| time (UTC) | temp F | wind direction | speed knots | gust knots | rain 1hr in | rain 24hr in | rain mn in | humidity % | barometer mb |
| 20260504192213 | 80 | 0 | 0.0 | 0.0 | 0.00 | 0.00 | 0.00 | 100 | 1014.0 |
| 20260504191505 | 80 | 0 | 0.0 | 0.0 | 0.00 | 0.00 | 0.00 | 100 | 1013.9 |
| 20260504191005 | 80 | 0 | 0.0 | 0.0 | 0.00 | 0.00 | 0.00 | 100 | 1014.0 |
| 20260504190504 | 81 | 0 | 0.0 | 0.0 | 0.00 | 0.00 | 0.00 | 100 | 1014.0 |
| 20260504190004 | 81 | 0 | 0.0 | 0.0 | 0.00 | 0.00 | 0.00 | 100 | 1014.2 |
| 20260504185504 | 81 | 0 | 0.0 | 0.0 | 0.00 | 0.00 | 0.00 | 100 | 1014.1 |
| 20260504185004 | 81 | 0 | 0.0 | 0.0 | 0.00 | 0.00 | 0.00 | 100 | 1014.1 |
| 20260504184505 | 81 | 0 | 0.0 | 0.0 | 0.00 | 0.00 | 0.00 | 100 | 1014.1 |
| 20260504184004 | 80 | 0 | 0.0 | 0.0 | 0.00 | 0.00 | 0.00 | 100 | 1014.2 |
| 20260504183504 | 80 | 0 | 0.0 | 0.0 | 0.00 | 0.00 | 0.00 | 100 | 1014.3 |
| 20260504183003 | 80 | 0 | 0.0 | 0.0 | 0.00 | 0.00 | 0.00 | 100 | 1014.3 |
| 20260504182716 | 80 | 0 | 0.0 | 0.0 | 0.00 | 0.00 | 0.00 | 100 | 1014.3 |
| 20260504182004 | 81 | 0 | 0.0 | 0.0 | 0.00 | 0.00 | 0.00 | 100 | 1014.4 |
| 20260504181504 | 81 | 0 | 0.0 | 0.0 | 0.00 | 0.00 | 0.00 | 100 | 1014.6 |
| 20260504181003 | 81 | 0 | 0.0 | 0.0 | 0.00 | 0.00 | 0.00 | 100 | 1014.7 |
| 20260504180503 | 80 | 0 | 0.0 | 0.0 | 0.00 | 0.00 | 0.00 | 100 | 1014.6 |
| 20260504180004 | 80 | 0 | 0.0 | 0.0 | 0.00 | 0.00 | 0.00 | 100 | 1014.8 |
| 20260504175504 | 80 | 0 | 0.0 | 0.0 | 0.00 | 0.00 | 0.00 | 100 | 1014.7 |
| 20260504175004 | 80 | 0 | 0.0 | 0.0 | 0.00 | 0.00 | 0.00 | 100 | 1014.7 |
| 20260504174715 | 80 | 0 | 0.0 | 0.0 | 0.00 | 0.00 | 0.00 | 100 | 1014.7 |
| 20260504174217 | 80 | 0 | 0.0 | 0.0 | 0.00 | 0.00 | 0.00 | 100 | 1015.0 |
| 20260504173504 | 80 | 0 | 0.0 | 0.0 | 0.00 | 0.00 | 0.00 | 100 | 1015.1 |
| 20260504173218 | 80 | 0 | 0.0 | 0.0 | 0.00 | 0.00 | 0.00 | 100 | 1015.2 |
| 20260504172504 | 80 | 0 | 0.0 | 0.0 | 0.00 | 0.00 | 0.00 | 100 | 1015.2 |
| 20260504172003 | 80 | 0 | 0.0 | 0.0 | 0.00 | 0.00 | 0.00 | 100 | 1015.2 |
| 20260504171503 | 80 | 0 | 0.0 | 0.0 | 0.00 | 0.00 | 0.00 | 100 | 1015.3 |
| 20260504171004 | 80 | 0 | 0.0 | 0.0 | 0.00 | 0.00 | 0.00 | 100 | 1015.3 |
| 20260504170504 | 80 | 0 | 0.0 | 0.0 | 0.00 | 0.00 | 0.00 | 100 | 1015.4 |
| 20260504150503 | 75 | 0 | 0.0 | 0.0 | 0.00 | 0.00 | 0.00 | 100 | 1016.1 |
| 20260504141004 | 75 | 0 | 0.0 | 0.0 | 0.00 | 0.00 | 0.00 | 100 | 1015.7 |
| 20260504140503 | 75 | 0 | 0.0 | 0.0 | 0.00 | 0.00 | 0.00 | 100 | 1015.7 |
| 20260504130503 | 65 | 0 | 0.0 | 0.0 | 0.00 | 0.00 | 0.00 | 100 | 1015.8 |
| 20260504120214 | 55 | 0 | 0.0 | 0.0 | 0.00 | 0.01 | 0.00 | 100 | 1015.6 |
| 20260504110503 | 55 | 0 | 0.0 | 0.0 | 0.00 | 0.01 | 0.00 | 100 | 1015.5 |
| 20260504100503 | 55 | 0 | 0.0 | 0.0 | 0.00 | 0.01 | 0.00 | 100 | 1015.6 |
| 20260504082004 | 55 | 0 | 0.0 | 0.0 | 0.00 | 0.01 | 0.00 | 100 | 1016.4 |
| 20260504081504 | 55 | 0 | 0.0 | 0.0 | 0.00 | 0.01 | 0.00 | 100 | 1016.3 |
| 20260504081003 | 54 | 0 | 0.0 | 0.0 | 0.00 | 0.01 | 0.00 | 100 | 1016.5 |
| 20260504080504 | 54 | 0 | 0.0 | 0.0 | 0.00 | 0.01 | 0.00 | 100 | 1016.6 |
| 20260504050503 | 54 | 0 | 0.0 | 0.0 | 0.00 | 0.01 | 0.00 | 100 | 1018.4 |
| 20260504050005 | 55 | 0 | 0.0 | 0.0 | 0.00 | 0.01 | 0.00 | 100 | 1018.4 |
| 20260504045503 | 55 | 0 | 0.0 | 0.0 | 0.00 | 0.01 | 0.01 | 100 | 1018.4 |
| 20260504045004 | 55 | 0 | 0.0 | 0.0 | 0.00 | 0.01 | 0.01 | 100 | 1018.4 |
| 20260504044504 | 55 | 0 | 0.0 | 0.0 | 0.00 | 0.01 | 0.01 | 100 | 1018.5 |
| 20260504044216 | 55 | 0 | 0.0 | 0.0 | 0.00 | 0.01 | 0.01 | 100 | 1018.6 |
| 20260504043714 | 55 | 0 | 0.0 | 0.0 | 0.00 | 0.01 | 0.01 | 100 | 1018.6 |
| 20260504043003 | 55 | 0 | 0.0 | 0.0 | 0.00 | 0.01 | 0.01 | 100 | 1018.6 |
| 20260504042715 | 55 | 0 | 0.0 | 0.0 | 0.00 | 0.01 | 0.01 | 100 | 1018.5 |
| 20260504042004 | 55 | 0 | 0.0 | 0.0 | 0.00 | 0.01 | 0.01 | 100 | 1018.5 |
| 20260504041503 | 55 | 0 | 0.0 | 0.0 | 0.00 | 0.01 | 0.01 | 100 | 1018.4 |
| 20260504041004 | 56 | 0 | 0.0 | 0.0 | 0.00 | 0.01 | 0.01 | 100 | 1018.3 |
| 20260504040503 | 56 | 0 | 0.0 | 0.0 | 0.00 | 0.01 | 0.01 | 100 | 1018.4 |
| 20260504040004 | 55 | 0 | 0.0 | 0.0 | 0.00 | 0.01 | 0.01 | 100 | 1018.5 |
| 20260504035503 | 55 | 0 | 0.0 | 0.0 | 0.00 | 0.01 | 0.01 | 100 | 1018.5 |
| 20260504035003 | 55 | 0 | 0.0 | 0.0 | 0.00 | 0.01 | 0.01 | 100 | 1018.6 |
| 20260504034504 | 55 | 0 | 0.0 | 0.0 | 0.00 | 0.01 | 0.01 | 100 | 1018.6 |
| 20260504034216 | 55 | 0 | 0.0 | 0.0 | 0.00 | 0.02 | 0.01 | 100 | 1018.5 |
| 20260504033504 | 56 | 0 | 0.0 | 0.0 | 0.00 | 0.02 | 0.01 | 100 | 1018.4 |
| 20260504033217 | 56 | 0 | 0.0 | 0.0 | 0.00 | 0.02 | 0.01 | 100 | 1018.5 |
| 20260504032504 | 56 | 0 | 0.0 | 0.0 | 0.00 | 0.02 | 0.01 | 100 | 1018.4 |
| 20260504032004 | 56 | 0 | 0.0 | 0.0 | 0.00 | 0.02 | 0.01 | 100 | 1018.4 |
| 20260504031503 | 56 | 0 | 0.0 | 0.0 | 0.00 | 0.03 | 0.01 | 100 | 1018.4 |
| 20260504031003 | 57 | 0 | 0.0 | 0.0 | 0.00 | 0.03 | 0.01 | 100 | 1018.4 |
| 20260504030717 | 57 | 0 | 0.0 | 0.0 | 0.00 | 0.03 | 0.01 | 100 | 1018.4 |
| 20260504030004 | 58 | 0 | 0.0 | 0.0 | 0.00 | 0.03 | 0.01 | 100 | 1018.3 |
| 20260504025504 | 58 | 0 | 0.0 | 0.0 | 0.00 | 0.04 | 0.01 | 100 | 1018.3 |
| 20260504025005 | 58 | 0 | 0.0 | 0.0 | 0.00 | 0.04 | 0.01 | 100 | 1018.4 |
| 20260504024504 | 58 | 0 | 0.0 | 0.0 | 0.00 | 0.04 | 0.01 | 100 | 1018.5 |
| 20260504024217 | 59 | 0 | 0.0 | 0.0 | 0.00 | 0.04 | 0.01 | 100 | 1018.4 |
| 20260504023503 | 59 | 0 | 0.0 | 0.0 | 0.00 | 0.05 | 0.01 | 100 | 1018.4 |
| 20260504023004 | 59 | 0 | 0.0 | 0.0 | 0.00 | 0.05 | 0.01 | 100 | 1018.4 |
| 20260504022504 | 59 | 0 | 0.0 | 0.0 | 0.00 | 0.06 | 0.01 | 100 | 1018.3 |
| 20260504022003 | 60 | 0 | 0.0 | 0.0 | 0.00 | 0.06 | 0.01 | 100 | 1018.2 |
| 20260504021504 | 60 | 0 | 0.0 | 0.0 | 0.00 | 0.07 | 0.01 | 100 | 1018.2 |
| 20260504021003 | 60 | 0 | 0.0 | 0.0 | 0.00 | 0.07 | 0.01 | 100 | 1018.2 |
| 20260504020504 | 60 | 0 | 0.0 | 0.0 | 0.00 | 0.07 | 0.01 | 100 | 1018.3 |
| 20260504015504 | 61 | 0 | 0.0 | 0.0 | 0.00 | 0.08 | 0.01 | 100 | 1018.3 |
| 20260504015003 | 61 | 0 | 0.0 | 0.0 | 0.00 | 0.09 | 0.01 | 100 | 1018.3 |
| 20260504014503 | 62 | 0 | 0.0 | 0.0 | 0.00 | 0.09 | 0.01 | 100 | 1018.3 |
| 20260504014213 | 62 | 0 | 0.0 | 0.0 | 0.00 | 0.10 | 0.01 | 100 | 1018.3 |
| 20260504013504 | 62 | 0 | 0.0 | 0.0 | 0.00 | 0.11 | 0.01 | 100 | 1018.4 |
| 20260504013004 | 62 | 0 | 0.0 | 0.0 | 0.00 | 0.11 | 0.01 | 100 | 1018.4 |
| 20260504012504 | 63 | 0 | 0.0 | 0.0 | 0.00 | 0.12 | 0.01 | 100 | 1018.3 |
| 20260504012003 | 63 | 0 | 0.0 | 0.0 | 0.00 | 0.12 | 0.01 | 100 | 1018.2 |
| 20260504011505 | 64 | 0 | 0.0 | 0.0 | 0.00 | 0.13 | 0.01 | 100 | 1018.3 |
| 20260504011004 | 64 | 0 | 0.0 | 0.0 | 0.00 | 0.14 | 0.01 | 100 | 1018.2 |
| 20260504010713 | 65 | 0 | 0.0 | 0.0 | 0.00 | 0.14 | 0.01 | 100 | 1018.4 |
| 20260504010216 | 66 | 0 | 0.0 | 0.0 | 0.00 | 0.15 | 0.01 | 100 | 1018.3 |
| 20260504005714 | 66 | 0 | 0.0 | 0.0 | 0.00 | 0.16 | 0.01 | 100 | 1018.3 |
| 20260504005004 | 67 | 0 | 0.0 | 0.0 | 0.00 | 0.17 | 0.01 | 100 | 1018.3 |
| 20260504004503 | 68 | 0 | 0.0 | 0.0 | 0.00 | 0.18 | 0.01 | 100 | 1018.2 |
| 20260504004003 | 69 | 0 | 0.0 | 0.0 | 0.00 | 0.19 | 0.01 | 100 | 1018.3 |
| 20260504003504 | 69 | 0 | 0.0 | 0.0 | 0.00 | 0.20 | 0.01 | 100 | 1018.3 |
| 20260504003214 | 70 | 0 | 0.0 | 0.0 | 0.00 | 0.20 | 0.01 | 100 | 1018.2 |
| 20260504002503 | 71 | 0 | 0.0 | 0.0 | 0.00 | 0.22 | 0.01 | 100 | 1018.2 |
| 20260504002004 | 72 | 0 | 0.0 | 0.0 | 0.00 | 0.23 | 0.01 | 100 | 1018.1 |
| 20260504001504 | 72 | 0 | 0.0 | 0.0 | 0.00 | 0.24 | 0.01 | 100 | 1018.2 |
| 20260504001004 | 73 | 0 | 0.0 | 0.0 | 0.00 | 0.25 | 0.01 | 100 | 1018.2 |
| 20260504000503 | 74 | 0 | 0.0 | 0.0 | 0.00 | 0.26 | 0.01 | 100 | 1018.3 |
| 20260504000003 | 74 | 0 | 0.0 | 0.0 | 0.00 | 0.27 | 0.01 | 100 | 1018.3 |
| 20260503235504 | 75 | 0 | 0.0 | 0.0 | 0.00 | 0.28 | 0.01 | 100 | 1018.2 |
| 20260503235213 | 75 | 0 | 0.0 | 0.0 | 0.00 | 0.29 | 0.01 | 100 | 1018.3 |
| 20260503234504 | 76 | 0 | 0.0 | 0.0 | 0.00 | 0.30 | 0.01 | 100 | 1018.4 |
| 20260503234004 | 77 | 0 | 0.0 | 0.0 | 0.00 | 0.31 | 0.01 | 100 | 1018.5 |
| 20260503233504 | 77 | 0 | 0.0 | 0.0 | 0.00 | 0.32 | 0.01 | 100 | 1018.5 |
| 20260503233005 | 76 | 0 | 0.0 | 0.0 | 0.00 | 0.33 | 0.01 | 100 | 1018.5 |
| 20260503232503 | 77 | 0 | 0.0 | 0.0 | 0.00 | 0.34 | 0.01 | 100 | 1018.6 |
| 20260503232004 | 77 | 0 | 0.0 | 0.0 | 0.00 | 0.35 | 0.01 | 100 | 1018.6 |
| 20260503231503 | 77 | 0 | 0.0 | 0.0 | 0.00 | 0.35 | 0.01 | 100 | 1018.6 |
| 20260503231005 | 77 | 0 | 0.0 | 0.0 | 0.00 | 0.36 | 0.01 | 100 | 1018.7 |
| 20260503230715 | 77 | 0 | 0.0 | 0.0 | 0.00 | 0.36 | 0.01 | 100 | 1018.7 |
| 20260503230003 | 77 | 0 | 0.0 | 0.0 | 0.00 | 0.37 | 0.01 | 100 | 1018.9 |
| 20260503225716 | 77 | 0 | 0.0 | 0.0 | 0.00 | 0.37 | 0.01 | 100 | 1018.9 |
| 20260503225004 | 77 | 0 | 0.0 | 0.0 | 0.00 | 0.38 | 0.01 | 100 | 1018.7 |
| 20260503224716 | 77 | 0 | 0.0 | 0.0 | 0.00 | 0.38 | 0.01 | 100 | 1018.9 |
| 20260503224005 | 77 | 0 | 0.0 | 0.0 | 0.00 | 0.38 | 0.01 | 100 | 1019.0 |
| 20260503223504 | 78 | 0 | 0.0 | 0.0 | 0.00 | 0.39 | 0.01 | 100 | 1019.2 |
| 20260503223003 | 77 | 0 | 0.0 | 0.0 | 0.00 | 0.39 | 0.01 | 100 | 1019.2 |
| 20260503222503 | 78 | 0 | 0.0 | 0.0 | 0.00 | 0.39 | 0.01 | 100 | 1019.1 |
| 20260503222003 | 78 | 0 | 0.0 | 0.0 | 0.00 | 0.39 | 0.01 | 100 | 1019.1 |
| 20260503221504 | 78 | 0 | 0.0 | 0.0 | 0.00 | 0.39 | 0.01 | 100 | 1019.2 |
| 20260503221004 | 77 | 0 | 0.0 | 0.0 | 0.00 | 0.39 | 0.01 | 100 | 1019.1 |
| 20260503220503 | 77 | 0 | 0.0 | 0.0 | 0.00 | 0.39 | 0.01 | 100 | 1019.1 |
| 20260503220005 | 77 | 0 | 0.0 | 0.0 | 0.00 | 0.39 | 0.01 | 100 | 1019.1 |
| 20260503215503 | 77 | 0 | 0.0 | 0.0 | 0.00 | 0.39 | 0.01 | 100 | 1019.3 |
| 20260503215004 | 78 | 0 | 0.0 | 0.0 | 0.00 | 0.39 | 0.01 | 100 | 1019.3 |
| 20260503214504 | 77 | 0 | 0.0 | 0.0 | 0.00 | 0.40 | 0.01 | 100 | 1019.4 |
| 20260503214004 | 77 | 0 | 0.0 | 0.0 | 0.00 | 0.40 | 0.01 | 100 | 1019.4 |
| 20260503213504 | 77 | 0 | 0.0 | 0.0 | 0.00 | 0.40 | 0.01 | 100 | 1019.4 |
| 20260503213004 | 77 | 0 | 0.0 | 0.0 | 0.00 | 0.40 | 0.01 | 100 | 1019.5 |
| 20260503212504 | 78 | 0 | 0.0 | 0.0 | 0.00 | 0.40 | 0.01 | 100 | 1019.6 |
| 20260503212004 | 78 | 0 | 0.0 | 0.0 | 0.00 | 0.40 | 0.01 | 100 | 1019.7 |
| 20260503211505 | 78 | 0 | 0.0 | 0.0 | 0.00 | 0.40 | 0.01 | 100 | 1019.7 |
| 20260503211004 | 77 | 0 | 0.0 | 0.0 | 0.00 | 0.40 | 0.01 | 100 | 1019.8 |
| 20260503210504 | 77 | 0 | 0.0 | 0.0 | 0.00 | 0.40 | 0.01 | 100 | 1019.8 |
| 20260503210004 | 77 | 0 | 0.0 | 0.0 | 0.00 | 0.40 | 0.01 | 100 | 1019.8 |
| 20260503205504 | 78 | 0 | 0.0 | 0.0 | 0.00 | 0.40 | 0.01 | 100 | 1019.9 |
| 20260503205004 | 78 | 0 | 0.0 | 0.0 | 0.00 | 0.40 | 0.01 | 100 | 1019.9 |
| 20260503204504 | 78 | 0 | 0.0 | 0.0 | 0.00 | 0.40 | 0.01 | 100 | 1019.9 |
| 20260503204216 | 78 | 0 | 0.0 | 0.0 | 0.00 | 0.40 | 0.01 | 100 | 1020.0 |
| 20260503203505 | 78 | 0 | 0.0 | 0.0 | 0.00 | 0.40 | 0.01 | 100 | 1020.2 |
| 20260503203004 | 78 | 0 | 0.0 | 0.0 | 0.00 | 0.40 | 0.01 | 100 | 1020.3 |
| 20260503202503 | 78 | 0 | 0.0 | 0.0 | 0.00 | 0.40 | 0.01 | 100 | 1020.4 |
| 20260503202003 | 78 | 0 | 0.0 | 0.0 | 0.00 | 0.40 | 0.01 | 100 | 1020.5 |
| 20260503201504 | 78 | 0 | 0.0 | 0.0 | 0.00 | 0.40 | 0.01 | 100 | 1020.5 |
| 20260503201004 | 78 | 0 | 0.0 | 0.0 | 0.00 | 0.41 | 0.01 | 100 | 1020.6 |
| 20260503200505 | 78 | 0 | 0.0 | 0.0 | 0.00 | 0.41 | 0.01 | 100 | 1020.7 |
| 20260503200215 | 78 | 0 | 0.0 | 0.0 | 0.00 | 0.41 | 0.01 | 100 | 1020.6 |
| 20260503195503 | 78 | 0 | 0.0 | 0.0 | 0.00 | 0.41 | 0.01 | 100 | 1020.8 |
| 20260503195004 | 78 | 0 | 0.0 | 0.0 | 0.00 | 0.41 | 0.01 | 100 | 1020.8 |
| 20260503194504 | 78 | 0 | 0.0 | 0.0 | 0.00 | 0.41 | 0.01 | 100 | 1020.8 |
| 20260503194004 | 78 | 0 | 0.0 | 0.0 | 0.00 | 0.41 | 0.01 | 100 | 1020.8 |
| 20260503193504 | 78 | 0 | 0.0 | 0.0 | 0.00 | 0.41 | 0.01 | 100 | 1020.9 |
| 20260503193004 | 78 | 0 | 0.0 | 0.0 | 0.00 | 0.41 | 0.01 | 100 | 1021.1 |
| 20260503192504 | 79 | 0 | 0.0 | 0.0 | 0.00 | 0.41 | 0.01 | 100 | 1021.1 |